Time,TemperatureF,DewpointF,PressureIn,WindDirection,WindDirectionDegrees,WindSpeedMPH,WindSpeedGustMPH,Humidity,HourlyPrecipIn,Conditions,Clouds,dailyrainin,SoftwareType,DateUTC
2013-02-09 00:00:00,14.4,11.0,28.25,NNW,337,2.3,6.5,90,0.00,,,0.00,Rainwise IP-100,2013-02-09 05:00:00,
2013-02-09 00:05:00,14.3,11.0,28.25,North,360,3.0,5.4,90,0.00,,,0.00,Rainwise IP-100,2013-02-09 05:05:00,
2013-02-09 00:10:00,14.1,11.0,28.25,NNE,22,2.1,5.4,90,0.00,,,0.00,Rainwise IP-100,2013-02-09 05:10:00,
2013-02-09 00:15:00,13.8,11.0,28.25,NNW,337,2.8,8.2,90,0.00,,,0.00,Rainwise IP-100,2013-02-09 05:15:00,
2013-02-09 00:20:00,13.5,11.0,28.25,NNW,337,6.5,8.6,89,0.00,,,0.00,Rainwise IP-100,2013-02-09 05:20:00,
2013-02-09 00:25:00,13.3,11.0,28.26,NNW,337,5.6,10.7,88,0.00,,,0.00,Rainwise IP-100,2013-02-09 05:25:00,
2013-02-09 00:30:00,13.2,11.0,28.25,NNW,337,3.5,7.7,88,0.00,,,0.00,Rainwise IP-100,2013-02-09 05:30:00,
2013-02-09 00:35:00,12.9,11.0,28.25,NNW,337,5.1,12.6,88,0.00,,,0.00,Rainwise IP-100,2013-02-09 05:35:00,
2013-02-09 00:40:00,12.7,11.0,28.25,NW,315,4.7,12.4,88,0.00,,,0.00,Rainwise IP-100,2013-02-09 05:40:00,
2013-02-09 00:45:00,12.4,11.0,28.26,NNW,337,6.3,9.8,88,0.00,,,0.00,Rainwise IP-100,2013-02-09 05:45:00,
2013-02-09 00:50:00,12.3,11.0,28.26,NNW,337,1.4,11.9,88,0.00,,,0.00,Rainwise IP-100,2013-02-09 05:50:00,
2013-02-09 00:55:00,12.2,11.0,28.26,NW,315,3.3,6.5,87,0.00,,,0.00,Rainwise IP-100,2013-02-09 05:55:00,
2013-02-09 01:00:00,12.0,11.0,28.26,SSE,157,1.6,6.3,87,0.00,,,0.00,Rainwise IP-100,2013-02-09 06:00:00,
2013-02-09 01:05:00,11.9,11.0,28.27,North,360,5.6,5.6,87,0.00,,,0.00,Rainwise IP-100,2013-02-09 06:05:00,
2013-02-09 01:07:00,11.7,11.0,28.27,NE,45,3.0,8.2,87,0.00,,,0.00,Rainwise IP-100,2013-02-09 06:07:00,
2013-02-09 01:08:00,11.7,11.0,28.27,WNW,292,5.8,8.2,87,0.00,,,0.00,Rainwise IP-100,2013-02-09 06:08:00,
2013-02-09 01:10:00,11.6,11.0,28.27,NNW,337,4.7,10.0,87,0.00,,,0.00,Rainwise IP-100,2013-02-09 06:10:00,
2013-02-09 01:15:00,11.3,8.0,28.28,NNW,337,6.8,8.2,87,0.00,,,0.00,Rainwise IP-100,2013-02-09 06:15:00,
2013-02-09 01:20:00,11.1,8.0,28.28,NW,315,0.0,7.5,87,0.00,,,0.00,Rainwise IP-100,2013-02-09 06:20:00,
2013-02-09 01:25:00,11.0,8.0,28.29,WNW,292,5.1,6.1,86,0.00,,,0.00,Rainwise IP-100,2013-02-09 06:25:00,
2013-02-09 01:30:00,10.8,8.0,28.29,North,360,2.6,7.2,86,0.00,,,0.00,Rainwise IP-100,2013-02-09 06:30:00,
2013-02-09 01:35:00,10.6,8.0,28.29,WNW,292,1.9,5.6,87,0.00,,,0.00,Rainwise IP-100,2013-02-09 06:35:00,
2013-02-09 01:40:00,10.5,8.0,28.29,NNE,22,0.0,5.1,87,0.00,,,0.00,Rainwise IP-100,2013-02-09 06:40:00,
2013-02-09 01:45:00,10.4,8.0,28.30,NW,315,2.6,9.6,87,0.00,,,0.00,Rainwise IP-100,2013-02-09 06:45:00,
2013-02-09 01:50:00,10.2,8.0,28.30,NNW,337,3.5,11.2,86,0.00,,,0.00,Rainwise IP-100,2013-02-09 06:50:00,
2013-02-09 01:55:00,10.0,8.0,28.30,ESE,112,2.3,9.3,86,0.00,,,0.00,Rainwise IP-100,2013-02-09 06:55:00,
2013-02-09 02:00:00,10.0,8.0,28.30,NW,315,5.8,5.8,87,0.00,,,0.00,Rainwise IP-100,2013-02-09 07:00:00,
2013-02-09 02:05:00,9.8,8.0,28.30,SSW,202,1.4,6.5,87,0.00,,,0.00,Rainwise IP-100,2013-02-09 07:05:00,
2013-02-09 02:10:00,9.7,8.0,28.30,NNW,337,2.3,12.4,86,0.00,,,0.00,Rainwise IP-100,2013-02-09 07:10:00,
2013-02-09 02:15:00,9.6,8.0,28.30,NNW,337,1.6,7.2,86,0.00,,,0.00,Rainwise IP-100,2013-02-09 07:15:00,
2013-02-09 02:20:00,9.4,8.0,28.30,NNW,337,5.6,10.5,86,0.00,,,0.00,Rainwise IP-100,2013-02-09 07:20:00,
2013-02-09 02:25:00,9.3,8.0,28.31,North,360,1.6,8.9,86,0.00,,,0.00,Rainwise IP-100,2013-02-09 07:25:00,
2013-02-09 02:30:00,9.2,8.0,28.30,North,360,0.0,8.6,86,0.00,,,0.00,Rainwise IP-100,2013-02-09 07:30:00,
2013-02-09 02:35:00,9.0,8.0,28.30,NNW,337,4.2,5.6,87,0.00,,,0.00,Rainwise IP-100,2013-02-09 07:35:00,
2013-02-09 02:40:00,8.9,8.0,28.30,NNW,337,4.2,8.4,87,0.00,,,0.00,Rainwise IP-100,2013-02-09 07:40:00,
2013-02-09 02:45:00,8.8,8.0,28.31,NNE,22,1.6,7.2,87,0.00,,,0.00,Rainwise IP-100,2013-02-09 07:45:00,
2013-02-09 02:50:00,8.7,8.0,28.30,NNW,337,0.0,7.9,87,0.00,,,0.00,Rainwise IP-100,2013-02-09 07:50:00,
2013-02-09 02:55:00,8.7,8.0,28.30,NNW,337,0.0,5.1,86,0.00,,,0.00,Rainwise IP-100,2013-02-09 07:55:00,
2013-02-09 03:00:00,8.6,8.0,28.31,NNW,337,0.0,7.7,86,0.00,,,0.00,Rainwise IP-100,2013-02-09 08:00:00,
2013-02-09 03:05:00,8.4,4.0,28.31,NW,315,4.0,6.8,86,0.00,,,0.00,Rainwise IP-100,2013-02-09 08:05:00,
2013-02-09 03:10:00,8.3,4.0,28.31,NW,315,2.6,8.6,86,0.00,,,0.00,Rainwise IP-100,2013-02-09 08:10:00,
2013-02-09 03:15:00,8.2,4.0,28.31,NNE,22,4.7,6.1,86,0.00,,,0.00,Rainwise IP-100,2013-02-09 08:15:00,
2013-02-09 03:20:00,8.1,4.0,28.32,NNW,337,3.7,11.9,86,0.00,,,0.00,Rainwise IP-100,2013-02-09 08:20:00,
2013-02-09 03:25:00,8.0,4.0,28.32,WSW,247,0.0,4.7,86,0.00,,,0.00,Rainwise IP-100,2013-02-09 08:25:00,
2013-02-09 03:30:00,8.0,4.0,28.32,NNW,337,0.0,4.4,87,0.00,,,0.00,Rainwise IP-100,2013-02-09 08:30:00,
2013-02-09 03:35:00,7.8,4.0,28.32,NNW,337,5.1,10.3,86,0.00,,,0.00,Rainwise IP-100,2013-02-09 08:35:00,
2013-02-09 03:40:00,7.6,4.0,28.32,NNW,337,7.5,10.3,86,0.00,,,0.00,Rainwise IP-100,2013-02-09 08:40:00,
2013-02-09 03:45:00,7.4,4.0,28.32,NNW,337,6.8,13.8,86,0.00,,,0.00,Rainwise IP-100,2013-02-09 08:45:00,
2013-02-09 03:50:00,7.2,4.0,28.33,NNW,337,2.6,10.7,86,0.00,,,0.00,Rainwise IP-100,2013-02-09 08:50:00,
2013-02-09 03:55:00,7.1,4.0,28.33,NNE,22,3.3,10.0,86,0.00,,,0.00,Rainwise IP-100,2013-02-09 08:55:00,
2013-02-09 04:00:00,7.0,4.0,28.33,NNW,337,3.7,7.7,86,0.00,,,0.00,Rainwise IP-100,2013-02-09 09:00:00,
2013-02-09 04:05:00,6.8,4.0,28.33,NNW,337,9.3,9.3,86,0.00,,,0.00,Rainwise IP-100,2013-02-09 09:05:00,
2013-02-09 04:10:00,6.7,4.0,28.33,NNW,337,2.6,15.4,86,0.00,,,0.00,Rainwise IP-100,2013-02-09 09:10:00,
2013-02-09 04:15:00,6.6,4.0,28.33,North,360,4.9,8.4,86,0.00,,,0.00,Rainwise IP-100,2013-02-09 09:15:00,
2013-02-09 04:20:00,6.6,4.0,28.33,NNW,337,4.9,7.5,86,0.00,,,0.00,Rainwise IP-100,2013-02-09 09:20:00,
2013-02-09 04:25:00,6.5,4.0,28.33,NNW,337,3.3,10.3,86,0.00,,,0.00,Rainwise IP-100,2013-02-09 09:25:00,
2013-02-09 04:30:00,6.5,4.0,28.33,NNW,337,2.6,10.0,86,0.00,,,0.00,Rainwise IP-100,2013-02-09 09:30:00,
2013-02-09 04:35:00,6.3,4.0,28.34,SSW,202,0.0,10.5,86,0.00,,,0.00,Rainwise IP-100,2013-02-09 09:35:00,
2013-02-09 04:40:00,6.2,4.0,28.34,NNW,337,5.1,7.0,86,0.00,,,0.00,Rainwise IP-100,2013-02-09 09:40:00,
2013-02-09 04:45:00,6.1,4.0,28.34,NNW,337,4.2,8.4,85,0.00,,,0.00,Rainwise IP-100,2013-02-09 09:45:00,
2013-02-09 04:50:00,6.0,4.0,28.34,NNW,337,3.3,7.5,85,0.00,,,0.00,Rainwise IP-100,2013-02-09 09:50:00,
2013-02-09 04:56:00,6.0,4.0,28.34,NNW,337,4.0,4.7,85,0.00,,,0.00,Rainwise IP-100,2013-02-09 09:56:00,
2013-02-09 05:01:00,5.9,4.0,28.34,NNW,337,2.3,7.2,86,0.00,,,0.00,Rainwise IP-100,2013-02-09 10:01:00,
2013-02-09 05:06:00,5.8,4.0,28.35,NNW,337,0.0,4.2,86,0.00,,,0.00,Rainwise IP-100,2013-02-09 10:06:00,
2013-02-09 05:11:00,5.9,4.0,28.36,North,360,4.9,4.9,86,0.00,,,0.00,Rainwise IP-100,2013-02-09 10:11:00,
2013-02-09 05:16:00,5.9,4.0,28.36,NW,315,3.0,7.9,86,0.00,,,0.00,Rainwise IP-100,2013-02-09 10:16:00,
2013-02-09 05:21:00,5.8,4.0,28.37,NNW,337,2.6,6.3,86,0.00,,,0.00,Rainwise IP-100,2013-02-09 10:21:00,
2013-02-09 05:26:00,5.7,4.0,28.37,NNW,337,7.0,7.7,86,0.00,,,0.00,Rainwise IP-100,2013-02-09 10:26:00,
2013-02-09 05:31:00,5.6,4.0,28.37,NNW,337,4.7,10.5,86,0.00,,,0.00,Rainwise IP-100,2013-02-09 10:31:00,
2013-02-09 05:36:00,5.6,4.0,28.37,NNW,337,3.0,9.6,86,0.00,,,0.00,Rainwise IP-100,2013-02-09 10:36:00,
2013-02-09 05:41:00,5.6,4.0,28.38,North,360,4.4,5.1,86,0.00,,,0.00,Rainwise IP-100,2013-02-09 10:41:00,
2013-02-09 05:46:00,5.5,4.0,28.38,NW,315,3.7,7.7,86,0.00,,,0.00,Rainwise IP-100,2013-02-09 10:46:00,
2013-02-09 05:51:00,5.4,4.0,28.38,NNW,337,3.3,6.8,86,0.00,,,0.00,Rainwise IP-100,2013-02-09 10:51:00,
2013-02-09 05:56:00,5.3,4.0,28.38,NNW,337,1.2,6.5,86,0.00,,,0.00,Rainwise IP-100,2013-02-09 10:56:00,
2013-02-09 06:01:00,5.4,4.0,28.38,NNW,337,1.6,3.0,86,0.00,,,0.00,Rainwise IP-100,2013-02-09 11:01:00,
2013-02-09 06:06:00,5.4,4.0,28.38,North,360,1.9,4.7,87,0.00,,,0.00,Rainwise IP-100,2013-02-09 11:06:00,
2013-02-09 06:11:00,5.4,4.0,28.39,NNW,337,1.9,7.0,87,0.00,,,0.00,Rainwise IP-100,2013-02-09 11:11:00,
2013-02-09 06:16:00,5.3,4.0,28.39,NNW,337,0.0,4.2,87,0.00,,,0.00,Rainwise IP-100,2013-02-09 11:16:00,
2013-02-09 06:21:00,5.4,4.0,28.39,NNW,337,0.0,6.1,87,0.00,,,0.00,Rainwise IP-100,2013-02-09 11:21:00,
2013-02-09 06:26:00,5.5,4.0,28.40,NNW,337,2.1,4.7,87,0.00,,,0.00,Rainwise IP-100,2013-02-09 11:26:00,
2013-02-09 06:31:00,5.6,4.0,28.40,NNW,337,2.8,4.4,87,0.00,,,0.00,Rainwise IP-100,2013-02-09 11:31:00,
2013-02-09 06:36:00,5.6,4.0,28.40,NNW,337,1.2,4.7,87,0.00,,,0.00,Rainwise IP-100,2013-02-09 11:36:00,
2013-02-09 06:41:00,5.6,4.0,28.40,NW,315,5.1,5.1,87,0.00,,,0.00,Rainwise IP-100,2013-02-09 11:41:00,
2013-02-09 06:46:00,5.3,4.0,28.41,NNW,337,2.8,7.0,86,0.00,,,0.00,Rainwise IP-100,2013-02-09 11:46:00,
2013-02-09 06:51:00,5.0,4.0,28.41,North,360,4.2,4.9,86,0.00,,,0.00,Rainwise IP-100,2013-02-09 11:51:00,
2013-02-09 06:56:00,4.9,4.0,28.41,NNW,337,4.2,5.6,86,0.00,,,0.00,Rainwise IP-100,2013-02-09 11:56:00,
2013-02-09 07:01:00,4.9,4.0,28.41,NNW,337,3.5,6.1,86,0.00,,,0.00,Rainwise IP-100,2013-02-09 12:01:00,
2013-02-09 07:06:00,4.8,4.0,28.41,NNE,22,2.3,7.7,86,0.00,,,0.00,Rainwise IP-100,2013-02-09 12:06:00,
2013-02-09 07:11:00,4.7,4.0,28.42,NNW,337,3.0,7.7,85,0.00,,,0.00,Rainwise IP-100,2013-02-09 12:11:00,
2013-02-09 07:16:00,4.6,4.0,28.42,North,360,3.7,7.0,85,0.00,,,0.00,Rainwise IP-100,2013-02-09 12:16:00,
2013-02-09 07:21:00,4.6,4.0,28.42,NNW,337,1.4,5.8,85,0.00,,,0.00,Rainwise IP-100,2013-02-09 12:21:00,
2013-02-09 07:26:00,4.7,4.0,28.42,NW,315,3.7,5.4,85,0.00,,,0.00,Rainwise IP-100,2013-02-09 12:26:00,
2013-02-09 07:31:00,4.6,4.0,28.42,North,360,2.8,6.8,85,0.00,,,0.00,Rainwise IP-100,2013-02-09 12:31:00,
2013-02-09 07:36:00,4.5,4.0,28.42,NW,315,1.4,5.4,85,0.00,,,0.00,Rainwise IP-100,2013-02-09 12:36:00,
2013-02-09 07:41:00,4.6,4.0,28.42,NNW,337,1.6,4.9,85,0.00,,,0.00,Rainwise IP-100,2013-02-09 12:41:00,
2013-02-09 07:46:00,4.7,4.0,28.43,NNW,337,3.5,4.0,85,0.00,,,0.00,Rainwise IP-100,2013-02-09 12:46:00,
2013-02-09 07:51:00,4.7,4.0,28.43,NNW,337,1.2,4.7,85,0.00,,,0.00,Rainwise IP-100,2013-02-09 12:51:00,
2013-02-09 07:56:00,4.7,4.0,28.43,NNW,337,1.4,4.0,85,0.00,,,0.00,Rainwise IP-100,2013-02-09 12:56:00,
2013-02-09 08:01:00,4.8,4.0,28.43,NNE,22,1.6,5.6,84,0.00,,,0.00,Rainwise IP-100,2013-02-09 13:01:00,
2013-02-09 08:06:00,4.8,4.0,28.43,NNW,337,0.0,4.4,84,0.00,,,0.00,Rainwise IP-100,2013-02-09 13:06:00,
2013-02-09 08:11:00,4.8,4.0,28.44,NNW,337,0.0,6.1,84,0.00,,,0.00,Rainwise IP-100,2013-02-09 13:11:00,
2013-02-09 08:16:00,4.8,4.0,28.44,NNW,337,0.0,4.9,84,0.00,,,0.00,Rainwise IP-100,2013-02-09 13:16:00,
2013-02-09 08:21:00,4.9,4.0,28.44,NNW,337,2.8,4.9,83,0.00,,,0.00,Rainwise IP-100,2013-02-09 13:21:00,
2013-02-09 08:26:00,5.0,4.0,28.44,NNW,337,1.4,3.5,83,0.00,,,0.00,Rainwise IP-100,2013-02-09 13:26:00,
2013-02-09 08:31:00,5.2,4.0,28.44,NNW,337,0.0,3.5,83,0.00,,,0.00,Rainwise IP-100,2013-02-09 13:31:00,
2013-02-09 08:36:00,5.4,4.0,28.45,NNE,22,2.6,6.8,83,0.00,,,0.00,Rainwise IP-100,2013-02-09 13:36:00,
2013-02-09 08:41:00,5.7,4.0,28.45,NNW,337,1.4,5.1,82,0.00,,,0.00,Rainwise IP-100,2013-02-09 13:41:00,
2013-02-09 08:46:00,5.9,4.0,28.45,NNW,337,3.5,6.3,82,0.00,,,0.00,Rainwise IP-100,2013-02-09 13:46:00,
2013-02-09 08:51:00,5.9,4.0,28.45,NW,315,1.6,6.3,81,0.00,,,0.00,Rainwise IP-100,2013-02-09 13:51:00,
2013-02-09 08:56:00,6.0,4.0,28.45,NNE,22,0.0,5.4,81,0.00,,,0.00,Rainwise IP-100,2013-02-09 13:56:00,
2013-02-09 09:01:00,6.3,4.0,28.46,NNW,337,3.0,9.1,80,0.00,,,0.00,Rainwise IP-100,2013-02-09 14:01:00,
2013-02-09 09:06:00,6.5,4.0,28.46,NNW,337,4.4,5.6,80,0.00,,,0.00,Rainwise IP-100,2013-02-09 14:06:00,
2013-02-09 09:11:00,6.5,4.0,28.47,NNW,337,3.0,7.2,80,0.00,,,0.00,Rainwise IP-100,2013-02-09 14:11:00,
2013-02-09 09:16:00,6.4,4.0,28.46,NNW,337,5.1,12.6,79,0.00,,,0.00,Rainwise IP-100,2013-02-09 14:16:00,
2013-02-09 09:21:00,6.3,4.0,28.46,NNW,337,3.5,10.5,79,0.00,,,0.00,Rainwise IP-100,2013-02-09 14:21:00,
2013-02-09 09:26:00,6.4,4.0,28.46,North,360,2.8,10.5,78,0.00,,,0.00,Rainwise IP-100,2013-02-09 14:26:00,
2013-02-09 09:31:00,6.5,4.0,28.46,NNW,337,4.0,11.9,78,0.00,,,0.00,Rainwise IP-100,2013-02-09 14:31:00,
2013-02-09 09:36:00,6.7,4.0,28.46,NNW,337,5.6,7.9,78,0.00,,,0.00,Rainwise IP-100,2013-02-09 14:36:00,
2013-02-09 09:41:00,6.7,4.0,28.47,NNW,337,5.4,9.3,77,0.00,,,0.00,Rainwise IP-100,2013-02-09 14:41:00,
2013-02-09 09:46:00,6.7,4.0,28.47,North,360,4.0,11.2,77,0.00,,,0.00,Rainwise IP-100,2013-02-09 14:46:00,
2013-02-09 09:51:00,6.9,4.0,28.48,NNW,337,5.1,7.5,76,0.00,,,0.00,Rainwise IP-100,2013-02-09 14:51:00,
2013-02-09 09:56:00,7.4,4.0,28.47,North,360,3.0,8.9,76,0.00,,,0.00,Rainwise IP-100,2013-02-09 14:56:00,
2013-02-09 10:01:00,8.0,4.0,28.47,North,360,3.7,6.1,75,0.00,,,0.00,Rainwise IP-100,2013-02-09 15:01:00,
2013-02-09 10:06:00,8.6,4.0,28.47,NNW,337,2.6,6.1,75,0.00,,,0.00,Rainwise IP-100,2013-02-09 15:06:00,
2013-02-09 10:11:00,8.9,4.0,28.47,NNW,337,2.6,7.2,74,0.00,,,0.00,Rainwise IP-100,2013-02-09 15:11:00,
2013-02-09 10:16:00,8.8,4.0,28.48,NNW,337,4.9,10.5,73,0.00,,,0.00,Rainwise IP-100,2013-02-09 15:16:00,
2013-02-09 10:21:00,8.8,4.0,28.48,NW,315,4.7,8.9,72,0.00,,,0.00,Rainwise IP-100,2013-02-09 15:21:00,
2013-02-09 10:26:00,8.9,4.0,28.48,NNW,337,7.9,8.4,71,0.00,,,0.00,Rainwise IP-100,2013-02-09 15:26:00,
2013-02-09 10:31:00,8.9,4.0,28.48,NW,315,3.3,9.1,71,0.00,,,0.00,Rainwise IP-100,2013-02-09 15:31:00,
2013-02-09 10:36:00,9.3,4.0,28.48,NW,315,2.3,8.9,70,0.00,,,0.00,Rainwise IP-100,2013-02-09 15:36:00,
2013-02-09 10:41:00,9.9,4.0,28.48,North,360,4.0,6.5,70,0.00,,,0.00,Rainwise IP-100,2013-02-09 15:41:00,
2013-02-09 10:46:00,10.5,4.0,28.48,NNW,337,1.4,8.6,69,0.00,,,0.00,Rainwise IP-100,2013-02-09 15:46:00,
2013-02-09 10:51:00,10.7,4.0,28.49,WNW,292,1.2,5.4,68,0.00,,,0.00,Rainwise IP-100,2013-02-09 15:51:00,
2013-02-09 10:56:00,10.5,4.0,28.48,NNW,337,2.3,5.1,68,0.00,,,0.00,Rainwise IP-100,2013-02-09 15:56:00,
2013-02-09 11:01:00,10.7,4.0,28.49,NNW,337,5.4,5.4,68,0.00,,,0.00,Rainwise IP-100,2013-02-09 16:01:00,
2013-02-09 11:06:00,11.3,4.0,28.48,North,360,3.0,6.3,67,0.00,,,0.00,Rainwise IP-100,2013-02-09 16:06:00,
2013-02-09 11:11:00,11.5,4.0,28.48,NNW,337,3.7,7.2,66,0.00,,,0.00,Rainwise IP-100,2013-02-09 16:11:00,
2013-02-09 11:16:00,11.2,4.0,28.48,NW,315,1.4,7.0,65,0.00,,,0.00,Rainwise IP-100,2013-02-09 16:16:00,
2013-02-09 11:21:00,11.3,0.0,28.48,NNE,22,5.6,9.3,64,0.00,,,0.00,Rainwise IP-100,2013-02-09 16:21:00,
2013-02-09 11:26:00,12.1,4.0,28.48,NNW,337,3.3,8.2,64,0.00,,,0.00,Rainwise IP-100,2013-02-09 16:26:00,
2013-02-09 11:31:00,12.2,4.0,28.48,NNW,337,3.0,10.7,63,0.00,,,0.00,Rainwise IP-100,2013-02-09 16:31:00,
2013-02-09 11:36:00,12.1,4.0,28.48,NNW,337,3.3,9.6,62,0.00,,,0.00,Rainwise IP-100,2013-02-09 16:36:00,
2013-02-09 11:41:00,12.3,4.0,28.48,NNW,337,4.2,9.1,62,0.00,,,0.00,Rainwise IP-100,2013-02-09 16:41:00,
2013-02-09 11:46:00,12.2,4.0,28.48,NW,315,6.5,13.5,62,0.00,,,0.00,Rainwise IP-100,2013-02-09 16:46:00,
2013-02-09 11:51:00,12.3,4.0,28.48,North,360,3.7,10.0,61,0.00,,,0.00,Rainwise IP-100,2013-02-09 16:51:00,
2013-02-09 11:56:00,12.7,4.0,28.48,NNW,337,6.8,11.0,60,0.00,,,0.00,Rainwise IP-100,2013-02-09 16:56:00,
2013-02-09 12:01:00,12.9,4.0,28.48,NNW,337,3.5,10.7,59,0.00,,,0.00,Rainwise IP-100,2013-02-09 17:01:00,
2013-02-09 12:06:00,12.9,4.0,28.48,NW,315,4.7,9.1,59,0.00,,,0.00,Rainwise IP-100,2013-02-09 17:06:00,
2013-02-09 12:11:00,13.1,4.0,28.48,NNW,337,7.0,8.6,59,0.00,,,0.00,Rainwise IP-100,2013-02-09 17:11:00,
2013-02-09 12:16:00,13.1,4.0,28.48,NNW,337,4.9,11.2,58,0.00,,,0.00,Rainwise IP-100,2013-02-09 17:16:00,
2013-02-09 12:21:00,13.1,4.0,28.48,NNW,337,5.4,11.2,57,0.00,,,0.00,Rainwise IP-100,2013-02-09 17:21:00,
2013-02-09 12:26:00,13.4,0.0,28.47,NNW,337,4.9,9.6,56,0.00,,,0.00,Rainwise IP-100,2013-02-09 17:26:00,
2013-02-09 12:31:00,14.0,4.0,28.48,NNW,337,7.5,7.9,57,0.00,,,0.00,Rainwise IP-100,2013-02-09 17:31:00,
2013-02-09 12:36:00,13.9,0.0,28.48,North,360,10.0,10.0,56,0.00,,,0.00,Rainwise IP-100,2013-02-09 17:36:00,
2013-02-09 12:41:00,13.7,0.0,28.48,North,360,2.1,12.4,55,0.00,,,0.00,Rainwise IP-100,2013-02-09 17:41:00,
2013-02-09 12:46:00,14.5,4.0,28.48,NNW,337,2.3,7.0,56,0.00,,,0.00,Rainwise IP-100,2013-02-09 17:46:00,
2013-02-09 12:51:00,14.7,4.0,28.48,WNW,292,2.6,5.6,56,0.00,,,0.00,Rainwise IP-100,2013-02-09 17:51:00,
2013-02-09 12:56:00,14.7,4.0,28.48,WNW,292,1.6,4.0,58,0.00,,,0.00,Rainwise IP-100,2013-02-09 17:56:00,
2013-02-09 13:01:00,14.8,4.0,28.48,WNW,292,2.8,5.4,59,0.00,,,0.00,Rainwise IP-100,2013-02-09 18:01:00,
2013-02-09 13:06:00,14.7,4.0,28.48,NNW,337,3.5,5.8,58,0.00,,,0.00,Rainwise IP-100,2013-02-09 18:06:00,
2013-02-09 13:11:00,14.8,4.0,28.49,NNW,337,4.7,6.5,57,0.00,,,0.00,Rainwise IP-100,2013-02-09 18:11:00,
2013-02-09 13:16:00,14.9,4.0,28.48,WNW,292,4.2,6.8,56,0.00,,,0.00,Rainwise IP-100,2013-02-09 18:16:00,
2013-02-09 13:21:00,14.9,4.0,28.48,NNW,337,4.2,6.1,55,0.00,,,0.00,Rainwise IP-100,2013-02-09 18:21:00,
2013-02-09 13:26:00,15.2,4.0,28.49,NNW,337,6.8,11.7,54,0.00,,,0.00,Rainwise IP-100,2013-02-09 18:26:00,
2013-02-09 13:31:00,15.4,4.0,28.49,NNW,337,6.8,11.0,53,0.00,,,0.00,Rainwise IP-100,2013-02-09 18:31:00,
2013-02-09 13:36:00,15.5,4.0,28.49,NNW,337,4.4,10.0,53,0.00,,,0.00,Rainwise IP-100,2013-02-09 18:36:00,
2013-02-09 13:41:00,15.6,4.0,28.49,WNW,292,4.0,11.0,54,0.00,,,0.00,Rainwise IP-100,2013-02-09 18:41:00,
2013-02-09 13:46:00,15.4,4.0,28.49,WNW,292,3.0,5.1,56,0.00,,,0.00,Rainwise IP-100,2013-02-09 18:46:00,
2013-02-09 13:51:00,15.5,4.0,28.49,WNW,292,3.3,4.4,57,0.00,,,0.00,Rainwise IP-100,2013-02-09 18:51:00,
2013-02-09 13:56:00,15.7,4.0,28.48,NW,315,5.4,7.9,57,0.00,,,0.00,Rainwise IP-100,2013-02-09 18:56:00,
2013-02-09 14:01:00,15.6,4.0,28.49,NNW,337,2.8,7.5,56,0.00,,,0.00,Rainwise IP-100,2013-02-09 19:01:00,
2013-02-09 14:06:00,15.8,4.0,28.48,WNW,292,2.6,4.9,55,0.00,,,0.00,Rainwise IP-100,2013-02-09 19:06:00,
2013-02-09 14:11:00,16.1,4.0,28.49,NNW,337,4.0,7.0,55,0.00,,,0.00,Rainwise IP-100,2013-02-09 19:11:00,
2013-02-09 14:16:00,16.2,4.0,28.49,WSW,247,2.1,11.4,54,0.00,,,0.00,Rainwise IP-100,2013-02-09 19:16:00,
2013-02-09 14:21:00,16.2,4.0,28.49,NW,315,3.0,7.7,53,0.00,,,0.00,Rainwise IP-100,2013-02-09 19:21:00,
2013-02-09 14:26:00,16.1,4.0,28.49,NNW,337,1.9,5.6,52,0.00,,,0.00,Rainwise IP-100,2013-02-09 19:26:00,
2013-02-09 14:31:00,16.4,4.0,28.49,NNW,337,4.4,5.4,52,0.00,,,0.00,Rainwise IP-100,2013-02-09 19:31:00,
2013-02-09 14:36:00,16.5,4.0,28.49,NW,315,1.9,7.0,52,0.06,,,0.01,Rainwise IP-100,2013-02-09 19:36:00,
2013-02-09 14:41:00,16.3,4.0,28.50,NW,315,1.4,5.8,52,0.06,,,0.01,Rainwise IP-100,2013-02-09 19:41:00,
2013-02-09 14:46:00,16.1,4.0,28.50,NNE,22,4.0,6.1,51,0.00,,,0.01,Rainwise IP-100,2013-02-09 19:46:00,
2013-02-09 14:51:00,16.2,4.0,28.50,NW,315,2.3,4.9,51,0.00,,,0.01,Rainwise IP-100,2013-02-09 19:51:00,
2013-02-09 14:56:00,16.3,4.0,28.50,NNW,337,1.9,5.8,51,0.00,,,0.01,Rainwise IP-100,2013-02-09 19:56:00,
2013-02-09 15:01:00,16.3,4.0,28.50,WNW,292,2.8,4.9,51,0.00,,,0.01,Rainwise IP-100,2013-02-09 20:01:00,
2013-02-09 15:06:00,16.2,4.0,28.50,NNW,337,2.3,7.2,51,0.00,,,0.01,Rainwise IP-100,2013-02-09 20:06:00,
2013-02-09 15:11:00,16.0,4.0,28.50,NNW,337,6.1,9.8,51,0.00,,,0.01,Rainwise IP-100,2013-02-09 20:11:00,
2013-02-09 15:16:00,16.1,4.0,28.50,NNW,337,3.5,9.8,50,0.00,,,0.01,Rainwise IP-100,2013-02-09 20:16:00,
2013-02-09 15:21:00,16.2,0.0,28.50,NW,315,2.8,6.3,49,0.00,,,0.01,Rainwise IP-100,2013-02-09 20:21:00,
2013-02-09 15:26:00,16.0,0.0,28.50,NW,315,4.4,7.0,48,0.00,,,0.01,Rainwise IP-100,2013-02-09 20:26:00,
2013-02-09 15:31:00,15.8,0.0,28.51,WNW,292,1.4,6.3,47,0.00,,,0.01,Rainwise IP-100,2013-02-09 20:31:00,
2013-02-09 15:36:00,16.0,0.0,28.50,WNW,292,1.2,7.0,47,0.00,,,0.01,Rainwise IP-100,2013-02-09 20:36:00,
2013-02-09 15:41:00,16.4,0.0,28.50,WNW,292,3.7,5.4,47,0.00,,,0.01,Rainwise IP-100,2013-02-09 20:41:00,
2013-02-09 15:46:00,16.3,0.0,28.50,NW,315,5.1,5.4,47,0.00,,,0.01,Rainwise IP-100,2013-02-09 20:46:00,
2013-02-09 15:51:00,15.8,0.0,28.50,WNW,292,1.9,6.1,47,0.00,,,0.01,Rainwise IP-100,2013-02-09 20:51:00,
2013-02-09 15:56:00,15.3,0.0,28.51,NW,315,2.1,5.1,48,0.00,,,0.01,Rainwise IP-100,2013-02-09 20:56:00,
2013-02-09 16:01:00,15.0,0.0,28.51,WNW,292,1.9,5.4,49,0.00,,,0.01,Rainwise IP-100,2013-02-09 21:01:00,
2013-02-09 16:06:00,14.6,0.0,28.51,North,360,5.4,8.4,49,0.00,,,0.01,Rainwise IP-100,2013-02-09 21:06:00,
2013-02-09 16:11:00,14.3,0.0,28.51,NW,315,6.1,7.0,49,0.00,,,0.01,Rainwise IP-100,2013-02-09 21:11:00,
2013-02-09 16:16:00,14.2,0.0,28.52,NW,315,1.9,9.1,49,0.00,,,0.01,Rainwise IP-100,2013-02-09 21:16:00,
2013-02-09 16:21:00,14.2,0.0,28.51,NW,315,3.3,4.7,50,0.00,,,0.01,Rainwise IP-100,2013-02-09 21:21:00,
2013-02-09 16:26:00,14.0,0.0,28.52,NW,315,4.2,5.4,51,0.00,,,0.01,Rainwise IP-100,2013-02-09 21:26:00,
2013-02-09 16:31:00,13.9,0.0,28.52,NW,315,1.9,4.7,52,0.00,,,0.01,Rainwise IP-100,2013-02-09 21:31:00,
2013-02-09 16:36:00,13.8,0.0,28.52,WNW,292,1.6,5.8,52,0.00,,,0.01,Rainwise IP-100,2013-02-09 21:36:00,
2013-02-09 16:41:00,13.6,0.0,28.52,WNW,292,1.2,4.7,52,0.00,,,0.01,Rainwise IP-100,2013-02-09 21:41:00,
2013-02-09 16:46:00,13.5,0.0,28.52,WNW,292,0.0,2.8,52,0.00,,,0.01,Rainwise IP-100,2013-02-09 21:46:00,
2013-02-09 16:51:00,13.4,0.0,28.52,NW,315,0.0,4.2,53,0.00,,,0.01,Rainwise IP-100,2013-02-09 21:51:00,
2013-02-09 16:56:00,13.0,0.0,28.53,NW,315,0.0,1.9,56,0.00,,,0.01,Rainwise IP-100,2013-02-09 21:56:00,
2013-02-09 17:01:00,12.5,4.0,28.54,NW,315,0.0,2.1,58,0.00,,,0.01,Rainwise IP-100,2013-02-09 22:01:00,
2013-02-09 17:06:00,12.0,4.0,28.54,NW,315,0.0,1.2,59,0.00,,,0.01,Rainwise IP-100,2013-02-09 22:06:00,
2013-02-09 17:11:00,11.6,4.0,28.54,NW,315,0.0,1.2,61,0.00,,,0.01,Rainwise IP-100,2013-02-09 22:11:00,
2013-02-09 17:16:00,11.2,0.0,28.55,NW,315,0.0,1.2,62,0.00,,,0.01,Rainwise IP-100,2013-02-09 22:16:00,
2013-02-09 17:21:00,10.8,0.0,28.55,NW,315,0.0,0.0,63,0.00,,,0.01,Rainwise IP-100,2013-02-09 22:21:00,
2013-02-09 17:26:00,10.5,0.0,28.55,NW,315,0.0,1.4,64,0.00,,,0.01,Rainwise IP-100,2013-02-09 22:26:00,
2013-02-09 17:31:00,10.5,0.0,28.55,NW,315,1.6,2.1,64,0.00,,,0.01,Rainwise IP-100,2013-02-09 22:31:00,
2013-02-09 17:36:00,10.7,0.0,28.56,NW,315,2.1,3.5,63,0.00,,,0.01,Rainwise IP-100,2013-02-09 22:36:00,
2013-02-09 17:41:00,10.6,0.0,28.56,NW,315,2.8,4.4,63,0.00,,,0.01,Rainwise IP-100,2013-02-09 22:41:00,
2013-02-09 17:46:00,10.3,0.0,28.56,NW,315,2.8,4.7,64,0.00,,,0.01,Rainwise IP-100,2013-02-09 22:46:00,
2013-02-09 17:51:00,10.3,0.0,28.56,NW,315,1.9,4.4,64,0.00,,,0.01,Rainwise IP-100,2013-02-09 22:51:00,
2013-02-09 17:56:00,10.3,0.0,28.57,NW,315,2.3,4.7,64,0.00,,,0.01,Rainwise IP-100,2013-02-09 22:56:00,
2013-02-09 18:01:00,10.3,0.0,28.57,NW,315,1.9,3.5,64,0.00,,,0.01,Rainwise IP-100,2013-02-09 23:01:00,
2013-02-09 18:06:00,10.2,0.0,28.58,NW,315,1.9,3.3,64,0.00,,,0.01,Rainwise IP-100,2013-02-09 23:06:00,
2013-02-09 18:11:00,10.0,0.0,28.58,NW,315,3.0,3.3,64,0.00,,,0.01,Rainwise IP-100,2013-02-09 23:11:00,
2013-02-09 18:16:00,9.7,4.0,28.58,WNW,292,0.0,3.3,65,0.00,,,0.01,Rainwise IP-100,2013-02-09 23:16:00,
2013-02-09 18:21:00,9.1,4.0,28.58,WNW,292,0.0,1.4,66,0.00,,,0.01,Rainwise IP-100,2013-02-09 23:21:00,
2013-02-09 18:26:00,8.6,4.0,28.59,NNW,337,0.0,0.0,68,0.00,,,0.01,Rainwise IP-100,2013-02-09 23:26:00,
2013-02-09 18:31:00,8.1,0.0,28.58,NNW,337,0.0,0.0,68,0.00,,,0.01,Rainwise IP-100,2013-02-09 23:31:00,
2013-02-09 18:36:00,7.9,0.0,28.58,NNW,337,0.0,0.0,69,0.00,,,0.01,Rainwise IP-100,2013-02-09 23:36:00,
2013-02-09 18:41:00,7.7,0.0,28.59,NNW,337,0.0,0.0,69,0.00,,,0.01,Rainwise IP-100,2013-02-09 23:41:00,
2013-02-09 18:46:00,7.4,0.0,28.59,NNW,337,0.0,0.0,70,0.00,,,0.01,Rainwise IP-100,2013-02-09 23:46:00,
2013-02-09 18:51:00,6.9,0.0,28.59,NNW,337,0.0,1.4,71,0.00,,,0.01,Rainwise IP-100,2013-02-09 23:51:00,
2013-02-09 18:56:00,6.9,0.0,28.59,NNW,337,0.0,0.0,72,0.00,,,0.01,Rainwise IP-100,2013-02-09 23:56:00,
2013-02-09 19:01:00,6.9,0.0,28.59,NNW,337,0.0,0.0,72,0.00,,,0.01,Rainwise IP-100,2013-02-10 00:01:00,
2013-02-09 19:06:00,6.8,0.0,28.60,NNW,337,0.0,0.0,73,0.00,,,0.01,Rainwise IP-100,2013-02-10 00:06:00,
2013-02-09 19:11:00,6.7,0.0,28.60,NNW,337,0.0,0.0,73,0.00,,,0.01,Rainwise IP-100,2013-02-10 00:11:00,
2013-02-09 19:16:00,6.7,0.0,28.60,NNW,337,0.0,0.0,73,0.00,,,0.01,Rainwise IP-100,2013-02-10 00:16:00,
2013-02-09 19:21:00,6.4,0.0,28.60,NNW,337,0.0,1.6,74,0.00,,,0.01,Rainwise IP-100,2013-02-10 00:21:00,
2013-02-09 19:26:00,5.4,0.0,28.60,ENE,67,3.0,3.3,74,0.00,,,0.01,Rainwise IP-100,2013-02-10 00:26:00,
2013-02-09 19:31:00,4.5,4.0,28.60,ENE,67,0.0,3.3,75,0.00,,,0.01,Rainwise IP-100,2013-02-10 00:31:00,
2013-02-09 19:36:00,4.4,0.0,28.61,ENE,67,0.0,1.2,77,0.00,,,0.01,Rainwise IP-100,2013-02-10 00:36:00,
2013-02-09 19:41:00,4.6,4.0,28.61,ENE,67,0.0,0.0,77,0.00,,,0.01,Rainwise IP-100,2013-02-10 00:41:00,
2013-02-09 19:46:00,4.7,4.0,28.61,ENE,67,0.0,0.0,78,0.00,,,0.01,Rainwise IP-100,2013-02-10 00:46:00,
2013-02-09 19:51:00,4.6,4.0,28.61,ENE,67,0.0,0.0,78,0.00,,,0.01,Rainwise IP-100,2013-02-10 00:51:00,
2013-02-09 19:56:00,3.8,0.0,28.61,ESE,112,0.0,1.6,78,0.00,,,0.01,Rainwise IP-100,2013-02-10 00:56:00,
2013-02-09 20:01:00,2.9,0.0,28.61,ESE,112,0.0,1.2,79,0.00,,,0.01,Rainwise IP-100,2013-02-10 01:01:00,
2013-02-09 20:06:00,2.8,0.0,28.62,ESE,112,0.0,1.2,80,0.00,,,0.01,Rainwise IP-100,2013-02-10 01:06:00,
2013-02-09 20:11:00,2.9,0.0,28.62,ESE,112,0.0,0.0,81,0.00,,,0.01,Rainwise IP-100,2013-02-10 01:11:00,
2013-02-09 20:16:00,2.6,0.0,28.61,ESE,112,0.0,0.0,81,0.00,,,0.01,Rainwise IP-100,2013-02-10 01:16:00,
2013-02-09 20:21:00,2.2,0.0,28.62,ESE,112,0.0,0.0,81,0.00,,,0.01,Rainwise IP-100,2013-02-10 01:21:00,
2013-02-09 20:26:00,1.7,0.0,28.62,ESE,112,0.0,0.0,81,0.00,,,0.01,Rainwise IP-100,2013-02-10 01:26:00,
2013-02-09 20:31:00,1.4,0.0,28.62,ESE,112,0.0,1.6,82,0.00,,,0.01,Rainwise IP-100,2013-02-10 01:31:00,
2013-02-09 20:36:00,1.1,0.0,28.62,ESE,112,0.0,0.0,83,0.00,,,0.01,Rainwise IP-100,2013-02-10 01:36:00,
2013-02-09 20:41:00,0.8,0.0,28.62,ESE,112,0.0,0.0,83,0.00,,,0.01,Rainwise IP-100,2013-02-10 01:41:00,
2013-02-09 20:46:00,0.7,0.0,28.62,ESE,112,0.0,0.0,83,0.00,,,0.01,Rainwise IP-100,2013-02-10 01:46:00,
2013-02-09 20:51:00,0.5,0.0,28.63,ESE,112,0.0,0.0,84,0.00,,,0.01,Rainwise IP-100,2013-02-10 01:51:00,
2013-02-09 20:56:00,0.3,-6.0,28.63,ESE,112,0.0,0.0,84,0.00,,,0.01,Rainwise IP-100,2013-02-10 01:56:00,
2013-02-09 21:01:00,0.1,-6.0,28.63,ESE,112,0.0,0.0,84,0.00,,,0.01,Rainwise IP-100,2013-02-10 02:01:00,
2013-02-09 21:06:00,0.1,-6.0,28.63,ESE,112,0.0,0.0,85,0.00,,,0.01,Rainwise IP-100,2013-02-10 02:06:00,
2013-02-09 21:11:00,0.3,-6.0,28.63,ESE,112,0.0,0.0,85,0.00,,,0.01,Rainwise IP-100,2013-02-10 02:11:00,
2013-02-09 21:16:00,0.5,-6.0,28.63,ESE,112,0.0,0.0,85,0.00,,,0.01,Rainwise IP-100,2013-02-10 02:16:00,
2013-02-09 21:21:00,0.8,-6.0,28.63,ESE,112,0.0,0.0,85,0.00,,,0.01,Rainwise IP-100,2013-02-10 02:21:00,
2013-02-09 21:26:00,-1.1,-6.0,28.63,ESE,112,0.0,0.0,85,0.00,,,0.01,Rainwise IP-100,2013-02-10 02:26:00,
2013-02-09 21:31:00,-1.3,-6.0,28.64,ESE,112,0.0,0.0,85,0.00,,,0.01,Rainwise IP-100,2013-02-10 02:31:00,
2013-02-09 21:36:00,-1.4,-6.0,28.63,ESE,112,0.0,1.6,85,0.00,,,0.01,Rainwise IP-100,2013-02-10 02:36:00,
2013-02-09 21:41:00,-1.6,-6.0,28.64,ESE,112,0.0,0.0,85,0.00,,,0.01,Rainwise IP-100,2013-02-10 02:41:00,
2013-02-09 21:46:00,-1.9,-6.0,28.63,ESE,112,0.0,0.0,85,0.00,,,0.01,Rainwise IP-100,2013-02-10 02:46:00,
2013-02-09 21:51:00,-2.1,-6.0,28.64,ESE,112,0.0,0.0,85,0.00,,,0.01,Rainwise IP-100,2013-02-10 02:51:00,
2013-02-09 21:56:00,-2.2,-6.0,28.64,ESE,112,0.0,0.0,86,0.00,,,0.01,Rainwise IP-100,2013-02-10 02:56:00,
2013-02-09 22:01:00,-2.2,-6.0,28.64,ESE,112,0.0,0.0,86,0.00,,,0.01,Rainwise IP-100,2013-02-10 03:01:00,
2013-02-09 22:06:00,-2.5,-6.0,28.64,ESE,112,0.0,0.0,85,0.00,,,0.01,Rainwise IP-100,2013-02-10 03:06:00,
2013-02-09 22:11:00,-2.7,-6.0,28.64,ESE,112,0.0,1.9,85,0.00,,,0.01,Rainwise IP-100,2013-02-10 03:11:00,
2013-02-09 22:16:00,-2.8,-6.0,28.64,ESE,112,0.0,1.2,85,0.00,,,0.01,Rainwise IP-100,2013-02-10 03:16:00,
2013-02-09 22:21:00,-3.0,-6.0,28.64,ESE,112,0.0,0.0,85,0.00,,,0.01,Rainwise IP-100,2013-02-10 03:21:00,
2013-02-09 22:26:00,-3.1,-6.0,28.64,ESE,112,0.0,0.0,85,0.00,,,0.01,Rainwise IP-100,2013-02-10 03:26:00,
2013-02-09 22:31:00,-3.4,-6.0,28.64,ESE,112,0.0,0.0,85,0.00,,,0.01,Rainwise IP-100,2013-02-10 03:31:00,
2013-02-09 22:36:00,-3.7,-6.0,28.64,ESE,112,0.0,0.0,85,0.00,,,0.01,Rainwise IP-100,2013-02-10 03:36:00,
2013-02-09 22:41:00,-4.0,-6.0,28.64,ESE,112,0.0,0.0,85,0.00,,,0.01,Rainwise IP-100,2013-02-10 03:41:00,
2013-02-09 22:46:00,-4.2,-6.0,28.64,ESE,112,0.0,0.0,85,0.00,,,0.01,Rainwise IP-100,2013-02-10 03:46:00,
2013-02-09 22:51:00,-4.3,-6.0,28.64,ESE,112,0.0,0.0,85,0.00,,,0.01,Rainwise IP-100,2013-02-10 03:51:00,
2013-02-09 22:56:00,-4.4,-6.0,28.64,ESE,112,0.0,0.0,85,0.00,,,0.01,Rainwise IP-100,2013-02-10 03:56:00,
2013-02-09 23:01:00,-4.8,-6.0,28.64,ESE,112,0.0,0.0,85,0.00,,,0.01,Rainwise IP-100,2013-02-10 04:01:00,
2013-02-09 23:06:00,-5.1,-6.0,28.64,ESE,112,0.0,0.0,85,0.00,,,0.01,Rainwise IP-100,2013-02-10 04:06:00,
2013-02-09 23:11:00,-5.1,-6.0,28.64,ESE,112,0.0,0.0,85,0.00,,,0.01,Rainwise IP-100,2013-02-10 04:11:00,
2013-02-09 23:16:00,-4.9,-6.0,28.65,ESE,112,0.0,0.0,86,0.00,,,0.01,Rainwise IP-100,2013-02-10 04:16:00,
2013-02-09 23:21:00,-4.8,-6.0,28.65,ESE,112,0.0,1.2,86,0.00,,,0.01,Rainwise IP-100,2013-02-10 04:21:00,
2013-02-09 23:26:00,-5.0,-6.0,28.65,ESE,112,0.0,1.4,86,0.00,,,0.01,Rainwise IP-100,2013-02-10 04:26:00,
2013-02-09 23:31:00,-4.7,-6.0,28.65,ESE,112,0.0,1.2,86,0.00,,,0.01,Rainwise IP-100,2013-02-10 04:31:00,
2013-02-09 23:36:00,-4.6,-6.0,28.65,ESE,112,1.4,2.1,86,0.00,,,0.01,Rainwise IP-100,2013-02-10 04:36:00,
2013-02-09 23:41:00,-4.8,-6.0,28.65,ESE,112,0.0,1.9,85,0.00,,,0.01,Rainwise IP-100,2013-02-10 04:41:00,
2013-02-09 23:46:00,-5.2,-6.0,28.66,ESE,112,0.0,1.2,84,0.00,,,0.01,Rainwise IP-100,2013-02-10 04:46:00,
2013-02-09 23:51:00,-5.6,-6.0,28.65,ESE,112,0.0,1.2,84,0.00,,,0.01,Rainwise IP-100,2013-02-10 04:51:00,
2013-02-09 23:56:00,-5.9,-6.0,28.65,ESE,112,0.0,0.0,84,0.00,,,0.01,Rainwise IP-100,2013-02-10 04:56:00,